This is the latest recevied weather packets stored in our database for station/object KJ4RDP-13. If no packets are shown the sender has not sent any weather packets the latest 10 day(s).
| Time | Temp. | Humidity | Pressure | Rain* | Wind** | Luminosity | Snow |
|---|---|---|---|---|---|---|---|
| 1777982195 | 7.78° C | 99% | 1015.7 hPa | 0 mm | - | 54 W/m² | - |
| 1777981893 | 7.22° C | 99% | 1015.7 hPa | 0 mm | - | 49 W/m² | - |
| 1777981590 | 6.11° C | 99% | 1016 hPa | 0 mm | - | 46 W/m² | - |
| 1777981287 | 5.56° C | 99% | 1016 hPa | 0 mm | - | 40 W/m² | - |
| 1777980983 | 5° C | 99% | 1015.7 hPa | 0 mm | - | 32 W/m² | - |
| 1777980680 | 5.56° C | 99% | 1016 hPa | 0 mm | - | 26 W/m² | - |
| 1777980376 | 5° C | 99% | 1015.7 hPa | 0 mm | - | 23 W/m² | - |
| 1777980075 | 3.33° C | 99% | 1015.7 hPa | 0 mm | - | 22 W/m² | - |
| 1777979774 | 2.78° C | 99% | 1015.7 hPa | 0 mm | - | 19 W/m² | - |
| 1777979470 | 2.78° C | 99% | 1015.7 hPa | 0 mm | - | 17 W/m² | - |
| 1777979166 | 2.78° C | 99% | 1015.2 hPa | 0 mm | - | 16 W/m² | - |
| 1777978864 | 2.78° C | 99% | 1015.7 hPa | 0 mm | - | 12 W/m² | - |
| 1777978560 | 2.78° C | 99% | 1015.7 hPa | 0 mm | - | 10 W/m² | - |
| 1777978256 | 2.78° C | 99% | 1015.7 hPa | 0 mm | - | 7 W/m² | - |
| 1777977953 | 2.78° C | 99% | 1015.7 hPa | 0 mm | - | 4 W/m² | - |
| 1777977651 | 2.78° C | 99% | 1015.7 hPa | 0 mm | - | 3 W/m² | - |
| 1777977347 | 3.33° C | 99% | 1015.7 hPa | 0 mm | - | 1 W/m² | - |
| 1777977044 | 3.33° C | 99% | 1015.7 hPa | 0 mm | - | 0 W/m² | - |
| 1777976742 | 3.33° C | 99% | 1015.7 hPa | 0 mm | - | 0 W/m² | - |
| 1777976439 | 3.33° C | 99% | 1015.7 hPa | 0 mm | - | 0 W/m² | - |
| 1777976137 | 3.33° C | 99% | 1015.7 hPa | 0 mm | - | 0 W/m² | - |
| 1777975833 | 3.33° C | 99% | 1015.7 hPa | 0 mm | - | 0 W/m² | - |
| 1777975530 | 3.33° C | 99% | 1015.7 hPa | 0 mm | - | 0 W/m² | - |
| 1777975227 | 3.33° C | 99% | 1015.7 hPa | 0 mm | - | 0 W/m² | - |
| 1777974923 | 3.33° C | 99% | 1015.2 hPa | 0 mm | - | 0 W/m² | - |
* Rain latest hour (hover to see other rain measurements)
** Current wind speed in m/s (hover to see current wind gust speed)